DateTime,F1_A11,F1_S11,BsB_S11,BsG_S11,BsR_S11,BbsB_S11,BbsG_S11,BbsR_S11,BaB_A11,BaG_A11,BaR_A11,T_S11,U_S11,P_S11,T1_A11
2016-05-29T00:00:00Z,0000380,21000600,,,,,,,,,,26.0,00.0,0664.9,34.3
2016-05-29T00:01:00Z,0000380,21000600,,,,,,,,,,26.0,00.0,0664.9,34.3
2016-05-29T00:02:00Z,0000380,21000600,,,,,,,,,,26.0,00.0,0664.9,34.3
2016-05-29T00:03:00Z,0000380,61000600,,,,,,,,,,26.0,00.0,0664.9,34.3
2016-05-29T00:04:00Z,0000380,41000600,0020.30,0014.37,0007.69,0001.81,0001.83,0000.30,0001.04,0000.95,0000.64,26.1,00.0,0665.7,34.3
2016-05-29T00:05:00Z,0000380,01000600,0020.84,0015.27,0007.99,0001.73,0001.42,0001.10,0001.42,0001.10,0000.87,26.1,00.0,0665.8,34.3
2016-05-29T00:06:00Z,0000380,01000600,0020.40,0014.59,0008.65,0002.05,0001.69,0001.05,0001.10,0001.06,0001.10,26.1,00.0,0665.8,34.3
2016-05-29T00:07:00Z,0000380,01000600,0020.74,0014.48,0008.13,0002.31,0001.55,0001.17,0001.24,0001.05,0000.47,26.1,00.0,0665.8,34.3
2016-05-29T00:08:00Z,0000380,01000600,0021.18,0014.63,0008.77,0001.43,0001.31,0001.44,0001.16,0001.22,0001.16,26.2,00.0,0665.8,34.3
2016-05-29T00:09:00Z,0000380,01000600,0020.99,0014.64,0008.42,0001.62,0001.34,0001.19,0001.30,0001.06,0000.81,26.1,00.0,0665.8,34.3
2016-05-29T00:10:00Z,0000380,01000600,0020.48,0014.17,0008.30,0002.24,0001.36,0001.08,0001.35,0001.13,0001.01,26.2,00.0,0665.8,34.3
2016-05-29T00:11:00Z,0000380,01000600,0020.38,0014.81,0008.61,0001.65,0001.14,0001.46,0001.01,0000.93,0000.53,26.2,00.0,0665.8,34.3
2016-05-29T00:12:00Z,0000380,01000600,0021.28,0014.81,0008.74,0001.67,0001.18,0000.94,0001.30,0001.13,0001.20,26.2,00.0,0665.9,34.3
2016-05-29T00:13:00Z,0000380,01000600,0021.15,0014.23,0008.96,0002.54,0001.60,0001.03,0001.14,0001.12,0000.81,26.2,00.0,0665.8,34.3
2016-05-29T00:14:00Z,0000380,01000600,0020.46,0014.96,0008.71,0001.74,0001.67,0000.91,0001.47,0001.20,0000.84,26.2,00.0,0665.8,34.3
2016-05-29T00:15:00Z,0000380,01000600,0021.16,0014.15,0008.67,0002.11,0001.37,0001.08,0001.25,0000.96,0000.76,26.3,00.0,0665.8,34.4
2016-05-29T00:16:00Z,0000380,01000600,0021.51,0014.13,0008.66,0002.47,0001.37,0000.86,0001.26,0001.13,0000.74,26.2,00.0,0665.9,34.4
2016-05-29T00:17:00Z,0000380,01000600,0020.46,0014.74,0008.44,0002.59,0001.06,0000.92,0001.12,0001.11,0001.24,26.3,00.0,0665.9,34.4
2016-05-29T00:18:00Z,0000380,01000600,0021.78,0015.11,0008.80,0001.94,0001.53,0001.41,0001.26,0001.11,0000.48,26.3,00.0,0665.9,34.4
2016-05-29T00:19:00Z,0000380,01000600,0021.55,0014.22,0008.56,0002.30,0001.31,0001.33,0001.17,0001.20,0001.20,26.3,00.0,0665.9,34.4
2016-05-29T00:20:00Z,0000380,01000600,0021.16,0014.99,0008.69,0002.16,0001.60,0001.30,0001.39,0000.99,0000.69,26.3,00.0,0665.9,34.4
2016-05-29T00:21:00Z,0000380,01000600,0021.08,0015.11,0008.32,0002.14,0001.56,0001.24,0001.36,0001.20,0000.83,26.3,00.0,0665.9,34.4
2016-05-29T00:22:00Z,0000380,01000600,0021.12,0014.90,0008.74,0002.17,0001.39,0001.25,0001.28,0001.04,0000.94,26.3,00.0,0665.9,34.4
2016-05-29T00:23:00Z,0000380,01000600,0021.66,0014.94,0008.80,0001.76,0001.55,0001.08,0001.41,0001.26,0001.02,26.3,00.0,0665.9,34.4
2016-05-29T00:24:00Z,0000380,01000600,0020.75,0014.61,0008.92,0002.02,0001.60,0001.16,0001.14,0001.23,0000.67,26.4,00.0,0665.9,34.4
2016-05-29T00:25:00Z,0000380,01000600,0020.89,0014.95,0008.65,0002.52,0001.17,0001.22,0001.36,0001.01,0000.96,26.4,00.0,0666.0,34.4
2016-05-29T00:26:00Z,0000380,01000600,0020.96,0015.07,0008.47,0002.19,0001.83,0001.03,0001.11,0001.09,0000.80,26.4,00.0,0666.0,34.4
2016-05-29T00:27:00Z,0000380,01000600,0021.84,0015.08,0008.77,0001.73,0001.41,0000.97,0001.33,0001.16,0000.95,26.5,00.0,0666.0,34.4
2016-05-29T00:28:00Z,0000380,01000600,0021.98,0015.17,0008.53,0001.92,0001.42,0000.99,0001.30,0001.15,0000.84,26.5,00.0,0666.0,34.4
2016-05-29T00:29:00Z,0000380,01000600,0021.13,0015.59,0008.66,0001.70,0001.58,0001.14,0001.33,0001.25,0001.16,26.5,00.0,0666.0,34.4
2016-05-29T00:30:00Z,0000380,01000600,0021.33,0015.38,0008.69,0003.17,0001.83,0000.79,0001.39,0001.08,0000.83,26.5,00.0,0666.0,34.4
2016-05-29T00:31:00Z,0000380,01000600,0021.61,0015.65,0008.92,0001.65,0001.56,0001.49,0001.38,0001.24,0000.97,26.5,00.0,0666.0,34.4
2016-05-29T00:32:00Z,0000380,01000600,0022.23,0015.72,0009.35,0002.05,0001.77,0001.13,0001.33,0001.08,0000.80,26.5,00.0,0666.0,34.4
2016-05-29T00:33:00Z,0000380,01000600,0021.95,0015.97,0009.28,0002.32,0001.79,0001.41,0001.38,0001.24,0000.90,26.5,00.0,0666.0,34.4
2016-05-29T00:34:00Z,0000380,01000600,0021.54,0016.04,0009.70,0001.95,0001.55,0001.10,0001.19,0001.21,0001.10,26.5,00.0,0666.0,34.4
2016-05-29T00:35:00Z,0000380,01000600,0022.16,0016.83,0009.08,0001.60,0001.56,0001.38,0001.50,0001.13,0000.73,26.5,00.0,0666.1,34.4
2016-05-29T00:36:00Z,0000380,01000600,0021.95,0016.65,0009.50,0001.98,0001.79,0001.16,0001.39,0001.34,0001.06,26.6,00.0,0666.1,34.4
2016-05-29T00:37:00Z,0000380,01000600,0022.69,0015.73,0009.41,0002.27,0001.96,0001.45,0001.27,0001.26,0000.79,26.6,00.0,0666.1,34.4
2016-05-29T00:38:00Z,0000380,01000600,0022.05,0016.76,0009.38,0003.10,0001.47,0001.18,0001.34,0001.29,0000.98,26.6,00.0,0666.1,34.4
2016-05-29T00:39:00Z,0000380,01000600,0023.25,0015.11,0009.09,0002.06,0001.57,0001.19,0001.37,0000.93,0000.99,26.6,00.0,0666.1,34.4
2016-05-29T00:40:00Z,0000380,01000600,0023.48,0016.44,0009.21,0002.51,0001.66,0001.21,0001.31,0001.39,0000.95,26.6,00.0,0666.1,34.4
2016-05-29T00:41:00Z,0000380,01000600,0022.93,0016.49,0008.97,0002.14,0001.95,0001.51,0001.55,0001.20,0000.79,26.7,00.0,0666.1,34.4
2016-05-29T00:42:00Z,0000380,01000600,0023.41,0016.47,0009.55,0002.16,0001.82,0001.34,0001.21,0001.12,0000.71,26.7,00.0,0666.1,34.4
2016-05-29T00:43:00Z,0000380,01000600,0022.49,0016.01,0009.53,0002.21,0001.45,0001.41,0001.51,0001.14,0001.30,26.6,00.0,0666.1,34.4
2016-05-29T00:44:00Z,0000380,01000600,0023.41,0016.08,0009.98,0002.21,0001.68,0001.11,0001.44,0001.20,0001.17,26.7,00.0,0666.1,34.4
2016-05-29T00:45:00Z,0000380,01000600,0022.36,0016.49,0009.37,0001.75,0001.47,0001.11,0001.30,0001.42,0000.87,26.6,00.0,0666.1,34.5
2016-05-29T00:46:00Z,0000380,01000600,0023.64,0016.88,0009.62,0002.18,0001.42,0001.07,0001.25,0001.08,0000.89,26.7,00.0,0666.1,34.5
2016-05-29T00:47:00Z,0000380,01000600,0022.81,0016.92,0009.98,0002.18,0001.36,0001.35,0001.61,0001.38,0000.82,26.7,00.0,0666.1,34.5
2016-05-29T00:48:00Z,0000380,01000600,0023.92,0016.46,0009.62,0002.32,0001.83,0001.51,0001.46,0001.27,0001.19,26.7,00.0,0666.1,34.5
2016-05-29T00:49:00Z,0000380,01000600,0023.72,0016.88,0009.70,0002.70,0001.50,0001.14,0001.42,0001.27,0001.18,26.7,00.0,0666.1,34.5
2016-05-29T00:50:00Z,0000380,01000600,0023.07,0016.60,0009.95,0002.35,0001.75,0001.26,0001.28,0001.19,0000.65,26.6,00.0,0666.2,34.5
2016-05-29T00:51:00Z,0000380,01000600,0023.55,0016.66,0009.45,0001.94,0001.85,0001.14,0001.44,0001.28,0001.03,26.6,00.0,0666.2,34.5
2016-05-29T00:52:00Z,0000380,01000600,0023.67,0016.74,0009.36,0001.83,0001.41,0001.51,0001.46,0001.38,0001.12,26.6,00.0,0666.2,34.5
2016-05-29T00:53:00Z,0000380,01000600,0024.35,0015.96,0009.55,0002.27,0001.82,0001.19,0001.47,0001.25,0000.97,26.6,00.0,0666.2,34.5
2016-05-29T00:54:00Z,0000380,01000600,0023.47,0016.83,0009.87,0001.76,0001.77,0001.48,0001.44,0001.32,0001.02,26.6,00.0,0666.2,34.5
2016-05-29T00:55:00Z,0000380,01000600,0024.23,0016.30,0009.77,0001.67,0001.63,0001.08,0001.37,0001.24,0001.19,26.5,00.0,0666.2,34.5
2016-05-29T00:56:00Z,0000380,01000600,0024.10,0016.56,0010.87,0001.76,0001.85,0001.56,0001.55,0001.37,0000.95,26.5,00.0,0666.2,34.5
2016-05-29T00:57:00Z,0000380,41000600,,,,,,,,,,,,0666.2,34.5
2016-05-29T00:58:00Z,0000380,61000600,,,,,,,,,,26.5,00.0,0665.3,34.5
2016-05-29T00:59:00Z,0000380,21000600,,,,,,,,,,26.5,00.0,0665.3,34.5
2016-05-29T01:00:00Z,0000380,21000600,,,,,,,,,,26.5,00.0,0665.3,34.3
2016-05-29T01:01:00Z,0000380,21000600,,,,,,,,,,26.4,00.0,0665.3,34.3
2016-05-29T01:02:00Z,0000380,21000600,,,,,,,,,,26.3,00.0,0665.3,34.3
2016-05-29T01:03:00Z,0000380,61000600,,,,,,,,,,26.4,00.0,0665.3,34.3
2016-05-29T01:04:00Z,0000380,41000600,0024.81,0016.86,0009.83,0002.13,0001.49,0001.08,0001.53,0001.22,0000.97,26.5,00.0,0666.1,34.3
2016-05-29T01:05:00Z,0000380,01000600,0024.24,0015.84,0009.91,0002.43,0001.50,0000.95,0001.26,0001.41,0001.15,26.5,00.0,0666.2,34.3
2016-05-29T01:06:00Z,0000380,01000600,0025.37,0017.31,0010.13,0001.98,0001.90,0001.16,0001.55,0001.23,0000.92,26.5,00.0,0666.2,34.3
2016-05-29T01:07:00Z,0000380,01000600,0024.23,0016.73,0010.81,0002.51,0001.28,0001.08,0001.41,0001.22,0001.20,26.5,00.0,0666.2,34.3
2016-05-29T01:08:00Z,0000380,01000600,0022.88,0016.66,0009.82,0002.52,0001.83,0001.27,0001.61,0001.42,0000.85,26.5,00.0,0666.2,34.3
2016-05-29T01:09:00Z,0000380,01000600,0024.48,0017.02,0010.55,0002.46,0001.39,0000.86,0001.36,0001.38,0000.85,26.6,00.0,0666.3,34.3
2016-05-29T01:10:00Z,0000380,01000600,0023.70,0017.77,0009.96,0002.14,0001.33,0001.24,0001.48,0001.19,0001.19,26.6,00.0,0666.3,34.3
2016-05-29T01:11:00Z,0000380,01000600,0026.08,0017.07,0010.04,0002.17,0001.91,0001.60,0001.50,0001.15,0001.02,26.6,00.0,0666.3,34.3
2016-05-29T01:12:00Z,0000380,01000600,0024.95,0017.37,0010.12,0002.75,0001.83,0001.68,0001.43,0001.39,0001.23,26.6,00.0,0666.3,34.3
2016-05-29T01:13:00Z,0000380,01000600,0025.61,0017.40,0009.85,0001.98,0001.23,0001.40,0001.54,0001.35,0000.92,26.6,00.0,0666.3,34.3
2016-05-29T01:14:00Z,0000380,01000600,0024.93,0017.91,0010.64,0001.89,0001.66,0001.41,0001.34,0001.30,0001.07,26.6,00.0,0666.3,34.3
2016-05-29T01:15:00Z,0000380,01000600,0026.08,0017.72,0010.42,0002.03,0001.64,0001.16,0001.51,0001.38,0000.90,26.6,00.0,0666.3,34.4
2016-05-29T01:16:00Z,0000380,01000600,0024.82,0016.66,0010.26,0002.16,0001.42,0001.60,0001.55,0001.41,0001.04,26.6,00.0,0666.3,34.4
2016-05-29T01:17:00Z,0000380,01000600,0026.96,0017.93,0009.88,0001.97,0001.94,0000.98,0001.49,0001.24,0001.17,26.5,00.0,0666.3,34.4
2016-05-29T01:18:00Z,0000380,01000600,0025.69,0017.58,0010.33,0002.32,0001.63,0001.49,0001.52,0001.26,0000.87,26.5,00.0,0666.3,34.4
2016-05-29T01:19:00Z,0000380,01000600,0026.09,0017.37,0010.32,0002.36,0001.71,0001.51,0001.41,0001.42,0000.84,26.5,00.0,0666.3,34.4
2016-05-29T01:20:00Z,0000380,01000600,0024.44,0017.53,0010.03,0002.40,0001.36,0001.05,0001.43,0001.34,0001.36,26.5,00.0,0666.3,34.4
2016-05-29T01:21:00Z,0000380,01000600,0024.90,0017.61,0010.75,0002.14,0001.94,0001.13,0001.62,0001.33,0001.17,26.5,00.0,0666.3,34.4
2016-05-29T01:22:00Z,0000380,01000600,0025.09,0017.29,0010.17,0002.55,0001.33,0001.29,0001.48,0001.18,0000.74,26.5,00.0,0666.3,34.4
2016-05-29T01:23:00Z,0000380,01000600,0025.85,0017.44,0009.92,0001.78,0001.77,0001.35,0001.42,0001.40,0001.29,26.5,00.0,0666.3,34.4
2016-05-29T01:24:00Z,0000380,01000600,0025.90,0017.24,0010.05,0002.51,0001.83,0001.41,0001.45,0001.21,0000.83,26.5,00.0,0666.4,34.4
2016-05-29T01:25:00Z,0000380,01000600,0025.31,0017.82,0010.24,0002.30,0002.02,0001.57,0001.59,0001.50,0001.15,26.5,00.0,0666.4,34.4
2016-05-29T01:26:00Z,0000380,01000600,0024.07,0017.12,0010.11,0002.30,0001.58,0001.19,0001.47,0001.21,0001.04,26.5,00.0,0666.4,34.4
2016-05-29T01:27:00Z,0000380,01000600,0024.71,0017.61,0010.30,0002.57,0002.31,0001.13,0001.52,0001.37,0000.94,26.5,00.0,0666.4,34.4
2016-05-29T01:28:00Z,0000380,01000600,0025.13,0017.55,0010.14,0002.62,0001.50,0001.03,0001.47,0001.28,0001.08,26.5,00.0,0666.4,34.4
2016-05-29T01:29:00Z,0000380,01000600,0026.58,0017.75,0010.15,0002.63,0001.63,0001.06,0001.47,0001.23,0000.95,26.5,00.0,0666.4,34.4
2016-05-29T01:30:00Z,0000380,01000600,0025.39,0017.38,0010.01,0003.03,0001.66,0001.19,0001.43,0001.37,0000.96,26.5,00.0,0666.4,34.4
2016-05-29T01:31:00Z,0000380,01000600,0025.32,0017.65,0010.31,0002.36,0001.58,0001.29,0001.50,0001.43,0001.34,26.5,00.0,0666.4,34.4
2016-05-29T01:32:00Z,0000380,01000600,0025.25,0017.44,0010.06,0002.06,0001.69,0001.45,0001.41,0001.13,0000.96,26.5,00.0,0666.4,34.4
2016-05-29T01:33:00Z,0000380,01000600,0025.92,0018.14,0010.66,0001.92,0001.71,0001.64,0001.58,0001.38,0000.64,26.5,00.0,0666.4,34.4
2016-05-29T01:34:00Z,0000380,01000600,0024.86,0017.86,0010.05,0002.27,0002.12,0001.51,0001.47,0001.29,0001.42,26.5,00.0,0666.4,34.4
2016-05-29T01:35:00Z,0000380,01000600,0026.00,0017.58,0010.45,0002.33,0001.78,0001.37,0001.70,0001.46,0001.12,26.5,00.0,0666.4,34.4
2016-05-29T01:36:00Z,0000380,01000600,0025.31,0016.83,0010.31,0002.16,0001.72,0001.40,0001.39,0001.18,0001.01,26.5,00.0,0666.4,34.4
2016-05-29T01:37:00Z,0000380,01000600,0025.49,0017.40,0009.95,0002.44,0002.02,0001.54,0001.51,0001.41,0000.83,26.5,00.0,0666.4,34.4
2016-05-29T01:38:00Z,0000380,01000600,0026.27,0017.47,0009.74,0001.81,0001.55,0001.21,0001.44,0001.34,0001.17,26.5,00.0,0666.4,34.4
2016-05-29T01:39:00Z,0000380,01000600,0026.06,0017.34,0010.04,0002.02,0001.77,0001.03,0001.66,0001.38,0001.08,26.6,00.0,0666.4,34.4
2016-05-29T01:40:00Z,0000380,01000600,0025.30,0017.18,0010.82,0002.71,0001.91,0001.19,0001.40,0001.50,0001.23,26.5,00.0,0666.4,34.4
2016-05-29T01:41:00Z,0000380,01000600,0025.34,0017.88,0010.18,0002.41,0001.88,0001.02,0001.65,0001.08,0000.77,26.6,00.0,0666.4,34.4
2016-05-29T01:42:00Z,0000380,01000600,0025.90,0017.05,0010.55,0002.79,0001.52,0001.48,0001.23,0001.21,0001.01,26.5,00.0,0666.4,34.4
2016-05-29T01:43:00Z,0000380,01000600,0026.17,0017.47,0010.23,0002.11,0001.93,0001.52,0001.50,0001.61,0001.25,26.6,00.0,0666.4,34.4
2016-05-29T01:44:00Z,0000380,01000600,0025.77,0018.21,0010.61,0002.79,0001.80,0001.13,0001.46,0001.39,0001.05,26.5,00.0,0666.3,34.4
2016-05-29T01:45:00Z,0000380,01000600,0024.97,0016.58,0010.31,0002.33,0002.05,0001.62,0001.35,0001.22,0000.77,26.5,00.0,0666.4,34.4
2016-05-29T01:46:00Z,0000380,01000600,0026.20,0017.14,0010.10,0001.71,0001.83,0001.41,0001.49,0001.47,0001.27,26.5,00.0,0666.4,34.4
2016-05-29T01:47:00Z,0000380,01000600,0024.01,0018.14,0010.43,0001.97,0001.86,0001.67,0001.60,0001.18,0000.97,26.5,00.0,0666.4,34.4
2016-05-29T01:48:00Z,0000380,01000600,0025.28,0016.76,0010.04,0002.00,0001.80,0001.51,0001.31,0001.42,0001.22,26.5,00.0,0666.4,34.4
2016-05-29T01:49:00Z,0000380,01000600,0025.57,0016.99,0010.09,0002.44,0001.99,0001.02,0001.52,0001.29,0000.65,26.5,00.0,0666.4,34.4
2016-05-29T01:50:00Z,0000380,01000600,0025.57,0017.69,0010.33,0002.11,0001.58,0001.37,0001.49,0001.23,0001.27,26.5,00.0,0666.4,34.4
2016-05-29T01:51:00Z,0000380,01000600,0025.66,0017.32,0010.04,0002.68,0001.39,0001.18,0001.54,0001.13,0000.78,26.5,00.0,0666.4,34.4
2016-05-29T01:52:00Z,0000380,01000600,0024.61,0016.89,0010.46,0002.54,0001.67,0001.36,0001.28,0001.27,0000.96,26.4,00.0,0666.5,34.4
2016-05-29T01:53:00Z,0000380,01000600,0025.22,0017.19,0009.74,0003.00,0001.99,0001.25,0001.42,0001.14,0000.81,26.4,00.0,0666.5,34.4
2016-05-29T01:54:00Z,0000380,01000600,0024.21,0017.69,0010.52,0002.09,0001.34,0001.52,0001.58,0001.42,0001.14,26.4,00.0,0666.5,34.4
2016-05-29T01:55:00Z,0000380,01000600,0024.84,0017.64,0009.67,0001.92,0001.53,0001.22,0001.44,0001.20,0001.21,26.4,00.0,0666.5,34.4
2016-05-29T01:56:00Z,0000380,01000600,0024.68,0016.63,0010.14,0002.36,0001.47,0001.32,0001.47,0001.45,0000.73,26.4,00.0,0666.5,34.4
2016-05-29T01:57:00Z,0000380,41000600,,,,,,,,,,,,0666.6,34.4
2016-05-29T01:58:00Z,0000380,61000600,,,,,,,,,,26.3,00.0,0665.7,34.4
2016-05-29T01:59:00Z,0000380,21000600,,,,,,,,,,26.3,00.0,0665.6,34.4
2016-05-29T02:00:00Z,0000380,21000600,,,,,,,,,,26.3,00.0,0665.6,34.3
2016-05-29T02:01:00Z,0000380,21000600,,,,,,,,,,26.3,00.0,0665.6,34.3
2016-05-29T02:02:00Z,0000380,21000600,,,,,,,,,,26.3,00.0,0665.6,34.3
2016-05-29T02:03:00Z,0000380,61000600,,,,,,,,,,26.3,00.0,0665.6,34.3
2016-05-29T02:04:00Z,0000380,41000600,0023.96,0017.24,0009.72,0002.76,0001.22,0001.38,0001.73,0001.34,0001.26,26.4,00.0,0666.4,34.3
2016-05-29T02:05:00Z,0000380,01000600,0024.94,0017.42,0009.93,0002.43,0001.80,0001.60,0001.39,0001.19,0000.79,26.4,00.0,0666.5,34.3
2016-05-29T02:06:00Z,0000380,01000600,0026.25,0016.97,0010.01,0002.77,0001.72,0001.27,0001.56,0001.38,0001.11,26.4,00.0,0666.5,34.3
2016-05-29T02:07:00Z,0000380,01000600,0025.80,0017.25,0009.55,0001.73,0001.48,0001.54,0001.46,0001.42,0001.29,26.4,00.0,0666.5,34.3
2016-05-29T02:08:00Z,0000380,01000600,0025.63,0017.85,0010.54,0002.74,0001.53,0001.32,0001.67,0001.40,0000.85,26.5,00.0,0666.5,34.3
2016-05-29T02:09:00Z,0000380,01000600,0025.74,0017.49,0010.10,0002.49,0001.47,0001.52,0001.45,0001.27,0000.95,26.5,00.0,0666.5,34.3
2016-05-29T02:10:00Z,0000380,01000600,0026.52,0018.03,0010.27,0003.08,0001.52,0001.38,0001.55,0001.44,0001.06,26.5,00.0,0666.5,34.3
2016-05-29T02:11:00Z,0000380,01000600,0025.38,0017.75,0010.04,0002.19,0001.60,0001.57,0001.29,0001.20,0001.06,26.5,00.0,0666.5,34.3
2016-05-29T02:12:00Z,0000380,01000600,0025.47,0017.98,0010.11,0001.87,0001.96,0001.11,0001.62,0001.41,0001.16,26.5,00.0,0666.5,34.3
2016-05-29T02:13:00Z,0000380,01000600,0025.43,0018.34,0009.73,0002.47,0001.91,0001.13,0001.40,0001.41,0000.91,26.5,00.0,0666.5,34.3
2016-05-29T02:14:00Z,0000380,01000600,0026.40,0018.31,0010.25,0002.46,0001.44,0001.32,0001.60,0001.23,0001.27,26.5,00.0,0666.5,34.3
2016-05-29T02:15:00Z,0000380,01000600,0025.63,0017.64,0010.58,0002.71,0001.86,0001.49,0001.56,0001.46,0000.79,26.5,00.0,0666.5,34.4
2016-05-29T02:16:00Z,0000380,01000600,0025.50,0018.60,0010.43,0002.19,0002.07,0001.19,0001.32,0001.18,0000.87,26.5,00.0,0666.5,34.4
2016-05-29T02:17:00Z,0000380,01000600,0026.46,0017.98,0009.97,0002.19,0001.71,0001.64,0001.86,0001.27,0001.46,26.5,00.0,0666.5,34.4
2016-05-29T02:18:00Z,0000380,01000600,0025.76,0018.02,0010.16,0002.33,0001.33,0001.56,0001.16,0001.33,0000.89,26.5,00.0,0666.5,34.4
2016-05-29T02:19:00Z,0000380,01000600,0026.47,0017.77,0010.40,0002.54,0001.63,0001.57,0001.62,0001.25,0001.34,26.5,00.0,0666.5,34.4
2016-05-29T02:20:00Z,0000380,01000600,0025.25,0018.57,0009.62,0001.95,0001.75,0001.10,0001.54,0001.34,0000.82,26.5,00.0,0666.5,34.4
2016-05-29T02:21:00Z,0000380,01000600,0025.17,0018.39,0009.67,0002.82,0002.05,0001.25,0001.45,0001.38,0001.19,26.5,00.0,0666.6,34.4
2016-05-29T02:22:00Z,0000380,01000600,0025.50,0017.91,0009.78,0002.43,0001.67,0001.40,0001.60,0001.46,0000.77,26.5,00.0,0666.6,34.4
2016-05-29T02:23:00Z,0000380,01000600,0026.50,0018.31,0010.20,0003.00,0001.56,0001.97,0001.55,0001.24,0001.45,26.5,00.0,0666.6,34.4
2016-05-29T02:24:00Z,0000380,01000600,0026.33,0018.03,0010.28,0002.58,0001.91,0001.68,0001.35,0001.30,0000.74,26.5,00.0,0666.6,34.4
2016-05-29T02:25:00Z,0000380,01000600,0026.05,0017.27,0010.09,0002.09,0001.61,0001.43,0001.67,0001.35,0001.29,26.5,00.0,0666.6,34.4
2016-05-29T02:26:00Z,0000380,01000600,0025.59,0018.24,0010.34,0001.87,0001.86,0001.41,0001.63,0001.27,0001.03,26.5,00.0,0666.7,34.4
2016-05-29T02:27:00Z,0000380,01000600,0025.00,0017.53,0009.79,0002.30,0001.67,0001.52,0001.50,0001.40,0000.99,26.5,00.0,0666.7,34.4
2016-05-29T02:28:00Z,0000380,01000600,0024.76,0017.66,0010.13,0001.93,0001.26,0001.35,0001.34,0001.29,0001.04,26.5,00.0,0666.7,34.4
2016-05-29T02:29:00Z,0000380,01000600,0026.29,0017.19,0009.97,0002.98,0001.63,0001.08,0001.56,0001.25,0001.03,26.5,00.0,0666.6,34.4
2016-05-29T02:30:00Z,0000380,01000600,0026.09,0017.58,0010.07,0002.35,0002.10,0001.51,0001.53,0001.37,0001.07,26.5,00.0,0666.6,34.5
2016-05-29T02:31:00Z,0000380,01000600,0025.52,0017.21,0010.10,0002.62,0001.82,0001.70,0001.41,0001.42,0001.01,26.5,00.0,0666.6,34.5
2016-05-29T02:32:00Z,0000380,01000600,0025.23,0017.86,0009.79,0002.54,0001.44,0001.37,0001.37,0001.24,0001.07,26.5,00.0,0666.6,34.5
2016-05-29T02:33:00Z,0000380,01000600,0025.37,0017.79,0010.01,0002.30,0002.08,0001.14,0001.56,0001.54,0001.16,26.5,00.0,0666.7,34.5
2016-05-29T02:34:00Z,0000380,01000600,0025.77,0017.47,0010.00,0002.43,0001.67,0001.27,0001.44,0001.27,0000.96,26.5,00.0,0666.7,34.5
2016-05-29T02:35:00Z,0000380,01000600,0025.11,0017.53,0009.35,0002.49,0001.67,0001.16,0001.62,0001.46,0000.90,26.5,00.0,0666.7,34.5
2016-05-29T02:36:00Z,0000380,01000600,0024.88,0017.69,0010.14,0002.36,0001.59,0001.33,0001.37,0001.17,0001.41,26.5,00.0,0666.7,34.5
2016-05-29T02:37:00Z,0000380,01000600,0024.39,0016.94,0010.44,0001.84,0001.83,0001.33,0001.39,0001.14,0000.78,26.5,00.0,0666.7,34.5
2016-05-29T02:38:00Z,0000380,01000600,0023.91,0016.80,0009.20,0002.39,0002.02,0001.11,0001.52,0001.29,0000.93,26.5,00.0,0666.7,34.5
2016-05-29T02:39:00Z,0000380,01000600,0022.95,0016.37,0008.94,0002.49,0001.50,0001.11,0001.41,0001.25,0000.79,26.5,00.0,0666.7,34.5
2016-05-29T02:40:00Z,0000380,01000600,0024.35,0016.35,0009.08,0002.49,0001.29,0000.92,0001.39,0001.32,0001.08,26.5,00.0,0666.7,34.5
2016-05-29T02:41:00Z,0000380,01000600,0024.75,0016.53,0009.50,0002.41,0001.03,0001.41,0001.27,0001.20,0001.05,26.5,00.0,0666.7,34.5
2016-05-29T02:42:00Z,0000380,01000600,0023.87,0016.74,0008.94,0001.98,0001.70,0001.08,0001.39,0001.27,0001.26,26.4,00.0,0666.8,34.5
2016-05-29T02:43:00Z,0000380,01000600,0024.03,0016.85,0009.14,0001.98,0001.47,0001.36,0001.68,0001.26,0000.84,26.5,00.0,0666.8,34.5
2016-05-29T02:44:00Z,0000380,01000600,0022.61,0015.63,0008.93,0001.43,0001.77,0001.14,0001.16,0001.21,0001.06,26.5,00.0,0666.8,34.5
2016-05-29T02:45:00Z,0000380,01000600,0022.06,0015.94,0008.46,0001.92,0001.42,0001.09,0001.30,0001.17,0000.69,26.4,00.0,0666.8,34.3
2016-05-29T02:46:00Z,0000380,01000600,0022.70,0015.81,0008.29,0002.63,0001.39,0001.33,0001.29,0001.26,0001.04,26.4,00.0,0666.8,34.3
2016-05-29T02:47:00Z,0000380,01000600,0023.28,0015.78,0009.18,0002.16,0001.45,0001.13,0001.51,0001.26,0001.19,26.4,00.0,0666.8,34.3
2016-05-29T02:48:00Z,0000380,01000600,0024.05,0015.92,0008.91,0002.42,0001.63,0001.06,0001.28,0001.29,0000.66,26.4,00.0,0666.8,34.3
2016-05-29T02:49:00Z,0000380,01000600,0024.86,0016.54,0009.54,0001.90,0001.34,0001.16,0001.55,0001.17,0000.97,26.4,00.0,0666.8,34.3
2016-05-29T02:50:00Z,0000380,01000600,0024.22,0016.88,0009.42,0002.09,0001.55,0001.14,0001.38,0001.18,0001.14,26.4,00.0,0666.8,34.3
2016-05-29T02:51:00Z,0000380,01000600,0025.72,0016.77,0009.44,0002.79,0001.45,0000.92,0001.28,0001.31,0000.92,26.4,00.0,0666.9,34.3
2016-05-29T02:52:00Z,0000380,01000600,0023.11,0016.62,0009.37,0001.95,0001.51,0001.24,0001.34,0001.36,0000.79,26.4,00.0,0666.9,34.3
2016-05-29T02:53:00Z,0000380,01000600,0023.03,0016.50,0009.14,0002.46,0001.37,0001.08,0001.49,0001.02,0000.90,26.4,00.0,0666.8,34.3
2016-05-29T02:54:00Z,0000380,01000600,0022.56,0015.90,0008.77,0002.92,0002.02,0001.22,0001.26,0001.18,0000.87,26.4,00.0,0666.8,34.3
2016-05-29T02:55:00Z,0000380,01000600,0023.11,0015.57,0009.30,0002.35,0001.78,0001.19,0001.36,0001.24,0001.39,26.4,00.0,0666.8,34.3
2016-05-29T02:56:00Z,0000380,01000600,0022.13,0015.02,0008.70,0001.66,0001.74,0000.90,0001.30,0001.14,0000.61,26.4,00.0,0666.8,34.3
2016-05-29T02:57:00Z,0000380,41000600,,,,,,,,,,,,0666.9,34.3
2016-05-29T02:58:00Z,0000380,61000600,,,,,,,,,,26.3,00.0,0666.0,34.3
2016-05-29T02:59:00Z,0000380,21000600,,,,,,,,,,26.3,00.0,0665.9,34.3
2016-05-29T03:00:00Z,0000380,21000600,,,,,,,,,,26.3,00.0,0665.9,34.3
2016-05-29T03:01:00Z,0000380,21000600,,,,,,,,,,26.3,00.0,0665.9,34.3
2016-05-29T03:02:00Z,0000380,21000600,,,,,,,,,,26.3,00.0,0665.9,34.3
2016-05-29T03:03:00Z,0000380,61000600,,,,,,,,,,26.3,00.0,0665.9,34.3
2016-05-29T03:04:00Z,0000380,41000600,0018.15,0012.84,0007.41,0001.24,0000.90,0001.11,0001.11,0000.96,0000.74,26.4,00.0,0666.8,34.3
2016-05-29T03:05:00Z,0000380,01000600,0017.13,0012.05,0006.56,0001.11,0001.26,0000.78,0001.08,0000.93,0000.95,26.4,00.0,0666.8,34.3
2016-05-29T03:06:00Z,0000380,01000600,0016.94,0011.66,0006.63,0001.62,0001.48,0000.95,0001.13,0000.92,0000.67,26.4,00.0,0666.8,34.3
2016-05-29T03:07:00Z,0000380,01000600,0016.50,0011.95,0007.11,0001.63,0001.22,0000.51,0000.93,0000.86,0000.64,26.4,00.0,0666.8,34.3
2016-05-29T03:08:00Z,0000380,01000600,0017.32,0012.06,0006.39,0001.66,0001.18,0000.76,0000.96,0000.95,0000.55,26.4,00.0,0666.8,34.3
2016-05-29T03:09:00Z,0000380,01000600,0015.65,0011.47,0006.99,0001.11,0001.80,0000.94,0000.99,0000.71,0000.87,26.4,00.0,0666.8,34.3
2016-05-29T03:10:00Z,0000380,01000600,0016.16,0010.56,0006.50,0001.35,0001.61,0000.78,0000.93,0000.90,0000.47,26.5,00.0,0666.8,34.3
2016-05-29T03:11:00Z,0000380,01000600,0016.30,0011.28,0005.92,0000.73,0001.01,0000.59,0001.00,0000.95,0000.66,26.5,00.0,0666.8,34.3
2016-05-29T03:12:00Z,0000380,01000600,0015.22,0010.28,0005.47,0001.71,0001.26,0000.37,0000.95,0000.77,0000.79,26.5,00.0,0666.8,34.3